owner,sensor,date,latitude,longitude,vertical_datum,mass_concentration_of_oxygen_in_sea_water,qcFlag 
DISL,ioos:station:DISL:KATA:1,2016-11-01T00:00:00Z,30.2583,-88.2131,4.203,5.66,1111122 
DISL,ioos:station:DISL:KATA:1,2016-11-01T00:30:00Z,30.2583,-88.2131,4.234,5.74,1111122 
DISL,ioos:station:DISL:KATA:1,2016-11-01T01:00:00Z,30.2583,-88.2131,4.263,5.82,1111122 
DISL,ioos:station:DISL:KATA:1,2016-11-01T01:30:00Z,30.2583,-88.2131,4.292,5.96,1111122 
DISL,ioos:station:DISL:KATA:1,2016-11-01T02:00:00Z,30.2583,-88.2131,4.318,5.94,1111122 
DISL,ioos:station:DISL:KATA:1,2016-11-01T02:30:00Z,30.2583,-88.2131,4.338,5.69,1111122 
DISL,ioos:station:DISL:KATA:1,2016-11-01T03:00:00Z,30.2583,-88.2131,4.352,5.53,1111122 
DISL,ioos:station:DISL:KATA:1,2016-11-01T03:30:00Z,30.2583,-88.2131,4.347,5.43,1111122 
DISL,ioos:station:DISL:KATA:1,2016-11-01T04:00:00Z,30.2583,-88.2131,4.34,5.15,1111122 
DISL,ioos:station:DISL:KATA:1,2016-11-01T04:30:00Z,30.2583,-88.2131,4.317,5.01,1111122 
DISL,ioos:station:DISL:KATA:1,2016-11-01T05:00:00Z,30.2583,-88.2131,4.298,5.03,1111122 
DISL,ioos:station:DISL:KATA:1,2016-11-01T05:30:00Z,30.2583,-88.2131,4.276,5.19,1111122 
DISL,ioos:station:DISL:KATA:1,2016-11-01T06:00:00Z,30.2583,-88.2131,4.259,4.96,1111122 
DISL,ioos:station:DISL:KATA:1,2016-11-01T06:30:00Z,30.2583,-88.2131,4.241,4.92,1111122 
DISL,ioos:station:DISL:KATA:1,2016-11-01T07:00:00Z,30.2583,-88.2131,4.211,5.12,1111122 
DISL,ioos:station:DISL:KATA:1,2016-11-01T07:30:00Z,30.2583,-88.2131,4.181,5.22,1111122 
DISL,ioos:station:DISL:KATA:1,2016-11-01T08:00:00Z,30.2583,-88.2131,4.146,5.27,1111122 
DISL,ioos:station:DISL:KATA:1,2016-11-01T08:30:00Z,30.2583,-88.2131,4.111,5.4,1111122 
DISL,ioos:station:DISL:KATA:1,2016-11-01T09:00:00Z,30.2583,-88.2131,4.068,6.05,1111122 
DISL,ioos:station:DISL:KATA:1,2016-11-01T09:30:00Z,30.2583,-88.2131,4.024,6.28,1111122 
DISL,ioos:station:DISL:KATA:1,2016-11-01T10:00:00Z,30.2583,-88.2131,3.982,6.47,1111122 
DISL,ioos:station:DISL:KATA:1,2016-11-01T10:30:00Z,30.2583,-88.2131,3.938,6.45,1111122 
DISL,ioos:station:DISL:KATA:1,2016-11-01T11:00:00Z,30.2583,-88.2131,3.894,6.48,1111122 
DISL,ioos:station:DISL:KATA:1,2016-11-01T11:30:00Z,30.2583,-88.2131,3.867,6.24,1111122 
DISL,ioos:station:DISL:KATA:1,2016-11-01T12:00:00Z,30.2583,-88.2131,3.845,6.67,1111122 
DISL,ioos:station:DISL:KATA:1,2016-11-01T12:30:00Z,30.2583,-88.2131,3.837,6.8,1111122 
DISL,ioos:station:DISL:KATA:1,2016-11-01T13:00:00Z,30.2583,-88.2131,3.836,6.59,1111122 
DISL,ioos:station:DISL:KATA:1,2016-11-01T13:30:00Z,30.2583,-88.2131,3.846,6.4,1111122 
DISL,ioos:station:DISL:KATA:1,2016-11-01T14:00:00Z,30.2583,-88.2131,3.853,6.17,1111122 
DISL,ioos:station:DISL:KATA:1,2016-11-01T14:30:00Z,30.2583,-88.2131,3.869,5.83,1111122 
DISL,ioos:station:DISL:KATA:1,2016-11-01T15:00:00Z,30.2583,-88.2131,3.881,5.64,1111122 
DISL,ioos:station:DISL:KATA:1,2016-11-01T15:30:00Z,30.2583,-88.2131,3.887,5.64,1111122 
DISL,ioos:station:DISL:KATA:1,2016-11-01T16:00:00Z,30.2583,-88.2131,3.892,5.41,1111122 
DISL,ioos:station:DISL:KATA:1,2016-11-01T16:30:00Z,30.2583,-88.2131,3.906,4.94,1111122 
DISL,ioos:station:DISL:KATA:1,2016-11-01T17:00:00Z,30.2583,-88.2131,3.923,5.09,1111122 
DISL,ioos:station:DISL:KATA:1,2016-11-01T17:30:00Z,30.2583,-88.2131,3.94,4.9,1111122 
DISL,ioos:station:DISL:KATA:1,2016-11-01T18:00:00Z,30.2583,-88.2131,3.96,4.79,1111122 
DISL,ioos:station:DISL:KATA:1,2016-11-01T18:30:00Z,30.2583,-88.2131,3.982,4.78,1111122 
DISL,ioos:station:DISL:KATA:1,2016-11-01T19:00:00Z,30.2583,-88.2131,3.999,4.82,1111122 
DISL,ioos:station:DISL:KATA:1,2016-11-01T19:30:00Z,30.2583,-88.2131,4.01,5.33,1111122 
DISL,ioos:station:DISL:KATA:1,2016-11-01T20:00:00Z,30.2583,-88.2131,4.037,5.21,1111122 
DISL,ioos:station:DISL:KATA:1,2016-11-01T20:30:00Z,30.2583,-88.2131,4.056,5.33,1111122 
DISL,ioos:station:DISL:KATA:1,2016-11-01T21:00:00Z,30.2583,-88.2131,4.079,5.25,1111122 
DISL,ioos:station:DISL:KATA:1,2016-11-01T21:30:00Z,30.2583,-88.2131,4.097,5.05,1111122 
DISL,ioos:station:DISL:KATA:1,2016-11-01T22:00:00Z,30.2583,-88.2131,4.112,4.89,1111122 
DISL,ioos:station:DISL:KATA:1,2016-11-01T22:30:00Z,30.2583,-88.2131,4.127,4.77,1111122 
DISL,ioos:station:DISL:KATA:1,2016-11-01T23:00:00Z,30.2583,-88.2131,4.142,4.81,1111122 
DISL,ioos:station:DISL:KATA:1,2016-11-01T23:30:00Z,30.2583,-88.2131,4.172,4.69,1111122 
DISL,ioos:station:DISL:KATA:1,2016-11-02T00:00:00Z,30.2583,-88.2131,4.194,4.68,1111122 
DISL,ioos:station:DISL:KATA:1,2016-11-02T00:30:00Z,30.2583,-88.2131,4.219,4.85,1111122 
DISL,ioos:station:DISL:KATA:1,2016-11-02T01:00:00Z,30.2583,-88.2131,4.251,4.86,1111122 
DISL,ioos:station:DISL:KATA:1,2016-11-02T01:30:00Z,30.2583,-88.2131,4.282,4.79,1111122 
DISL,ioos:station:DISL:KATA:1,2016-11-02T02:00:00Z,30.2583,-88.2131,4.309,4.8,1111122 
DISL,ioos:station:DISL:KATA:1,2016-11-02T02:30:00Z,30.2583,-88.2131,4.337,4.73,1111122 
DISL,ioos:station:DISL:KATA:1,2016-11-02T03:00:00Z,30.2583,-88.2131,4.356,4.73,1111122 
DISL,ioos:station:DISL:KATA:1,2016-11-02T03:30:00Z,30.2583,-88.2131,4.366,4.57,1111122 
DISL,ioos:station:DISL:KATA:1,2016-11-02T04:00:00Z,30.2583,-88.2131,4.377,4.66,1111122 
DISL,ioos:station:DISL:KATA:1,2016-11-02T04:30:00Z,30.2583,-88.2131,4.377,4.72,1111122 
DISL,ioos:station:DISL:KATA:1,2016-11-02T05:00:00Z,30.2583,-88.2131,4.358,4.71,1111122 
DISL,ioos:station:DISL:KATA:1,2016-11-02T05:30:00Z,30.2583,-88.2131,4.34,4.78,1111122 
DISL,ioos:station:DISL:KATA:1,2016-11-02T06:00:00Z,30.2583,-88.2131,4.317,4.68,1111122 
DISL,ioos:station:DISL:KATA:1,2016-11-02T06:30:00Z,30.2583,-88.2131,4.285,4.46,1111122 
DISL,ioos:station:DISL:KATA:1,2016-11-02T07:00:00Z,30.2583,-88.2131,4.269,4.29,1111122 
DISL,ioos:station:DISL:KATA:1,2016-11-02T07:30:00Z,30.2583,-88.2131,4.255,4.15,1111122 
DISL,ioos:station:DISL:KATA:1,2016-11-02T08:00:00Z,30.2583,-88.2131,4.239,6.69,1111122 
DISL,ioos:station:DISL:KATA:1,2016-11-02T08:30:00Z,30.2583,-88.2131,4.203,6.45,1111122 
DISL,ioos:station:DISL:KATA:1,2016-11-02T09:00:00Z,30.2583,-88.2131,4.17,5.31,1111122 
DISL,ioos:station:DISL:KATA:1,2016-11-02T09:30:00Z,30.2583,-88.2131,4.131,4.41,1111122 
DISL,ioos:station:DISL:KATA:1,2016-11-02T10:00:00Z,30.2583,-88.2131,4.093,4.11,1111122 
DISL,ioos:station:DISL:KATA:1,2016-11-02T10:30:00Z,30.2583,-88.2131,4.049,4.23,1111122 
DISL,ioos:station:DISL:KATA:1,2016-11-02T11:00:00Z,30.2583,-88.2131,4.005,4.43,1111122 
DISL,ioos:station:DISL:KATA:1,2016-11-02T11:30:00Z,30.2583,-88.2131,3.954,4.22,1111122 
DISL,ioos:station:DISL:KATA:1,2016-11-02T12:00:00Z,30.2583,-88.2131,3.919,4.6,1111122 
DISL,ioos:station:DISL:KATA:1,2016-11-02T12:30:00Z,30.2583,-88.2131,3.898,4.73,1111122 
DISL,ioos:station:DISL:KATA:1,2016-11-02T13:00:00Z,30.2583,-88.2131,3.886,4.95,1111122 
DISL,ioos:station:DISL:KATA:1,2016-11-02T13:30:00Z,30.2583,-88.2131,3.88,4.34,1111122 
DISL,ioos:station:DISL:KATA:1,2016-11-02T14:00:00Z,30.2583,-88.2131,3.876,2.81,1111122 
DISL,ioos:station:DISL:KATA:1,2016-11-02T14:30:00Z,30.2583,-88.2131,3.889,3.21,1111122 
DISL,ioos:station:DISL:KATA:1,2016-11-02T15:00:00Z,30.2583,-88.2131,3.896,3.55,1111122 
DISL,ioos:station:DISL:KATA:1,2016-11-02T15:30:00Z,30.2583,-88.2131,3.906,3.59,1111122 
DISL,ioos:station:DISL:KATA:1,2016-11-02T16:00:00Z,30.2583,-88.2131,3.909,3.92,1111122 
DISL,ioos:station:DISL:KATA:1,2016-11-02T16:30:00Z,30.2583,-88.2131,3.918,3.84,1111122 
DISL,ioos:station:DISL:KATA:1,2016-11-02T17:00:00Z,30.2583,-88.2131,3.923,3.69,1111122 
DISL,ioos:station:DISL:KATA:1,2016-11-02T17:30:00Z,30.2583,-88.2131,3.933,3.76,1111122 
DISL,ioos:station:DISL:KATA:1,2016-11-02T18:00:00Z,30.2583,-88.2131,3.952,3.95,1111122 
DISL,ioos:station:DISL:KATA:1,2016-11-02T18:30:00Z,30.2583,-88.2131,3.975,3.91,1111122 
DISL,ioos:station:DISL:KATA:1,2016-11-02T19:00:00Z,30.2583,-88.2131,3.988,3.91,1111122 
DISL,ioos:station:DISL:KATA:1,2016-11-02T19:30:00Z,30.2583,-88.2131,3.999,3.79,1111122 
DISL,ioos:station:DISL:KATA:1,2016-11-02T20:00:00Z,30.2583,-88.2131,4.023,3.53,1111122 
DISL,ioos:station:DISL:KATA:1,2016-11-02T20:30:00Z,30.2583,-88.2131,4.041,3.1,1111122 
DISL,ioos:station:DISL:KATA:1,2016-11-02T21:00:00Z,30.2583,-88.2131,4.06,2.98,1111122 
DISL,ioos:station:DISL:KATA:1,2016-11-02T21:30:00Z,30.2583,-88.2131,4.09,3.11,1111122 
DISL,ioos:station:DISL:KATA:1,2016-11-02T22:00:00Z,30.2583,-88.2131,4.108,3.3,1111122 
DISL,ioos:station:DISL:KATA:1,2016-11-02T22:30:00Z,30.2583,-88.2131,4.122,3.61,1111122 
DISL,ioos:station:DISL:KATA:1,2016-11-02T23:00:00Z,30.2583,-88.2131,4.134,4.08,1111122 
DISL,ioos:station:DISL:KATA:1,2016-11-02T23:30:00Z,30.2583,-88.2131,4.146,4.43,1111122 
DISL,ioos:station:DISL:KATA:1,2016-11-03T00:00:00Z,30.2583,-88.2131,4.164,4.63,1111122 
DISL,ioos:station:DISL:KATA:1,2016-11-03T00:30:00Z,30.2583,-88.2131,4.171,4.78,1111122 
DISL,ioos:station:DISL:KATA:1,2016-11-03T01:00:00Z,30.2583,-88.2131,4.195,4.64,1111122 
DISL,ioos:station:DISL:KATA:1,2016-11-03T01:30:00Z,30.2583,-88.2131,4.224,4.37,1111122 
DISL,ioos:station:DISL:KATA:1,2016-11-03T02:00:00Z,30.2583,-88.2131,4.262,4.44,1111122 
DISL,ioos:station:DISL:KATA:1,2016-11-03T02:30:00Z,30.2583,-88.2131,4.294,4.65,1111122 
DISL,ioos:station:DISL:KATA:1,2016-11-03T03:00:00Z,30.2583,-88.2131,4.321,4.62,1111122 
DISL,ioos:station:DISL:KATA:1,2016-11-03T03:30:00Z,30.2583,-88.2131,4.337,4.59,1111122 
DISL,ioos:station:DISL:KATA:1,2016-11-03T04:00:00Z,30.2583,-88.2131,4.345,4.66,1111122 
DISL,ioos:station:DISL:KATA:1,2016-11-03T04:30:00Z,30.2583,-88.2131,4.346,4.89,1111122 
DISL,ioos:station:DISL:KATA:1,2016-11-03T05:00:00Z,30.2583,-88.2131,4.335,5.02,1111122 
DISL,ioos:station:DISL:KATA:1,2016-11-03T05:30:00Z,30.2583,-88.2131,4.324,4.91,1111122 
DISL,ioos:station:DISL:KATA:1,2016-11-03T06:00:00Z,30.2583,-88.2131,4.299,4.86,1111122 
DISL,ioos:station:DISL:KATA:1,2016-11-03T06:30:00Z,30.2583,-88.2131,4.272,4.99,1111122 
DISL,ioos:station:DISL:KATA:1,2016-11-03T07:00:00Z,30.2583,-88.2131,4.253,4.81,1111122 
DISL,ioos:station:DISL:KATA:1,2016-11-03T07:30:00Z,30.2583,-88.2131,4.242,4.73,1111122 
DISL,ioos:station:DISL:KATA:1,2016-11-03T08:00:00Z,30.2583,-88.2131,4.22,4.77,1111122 
DISL,ioos:station:DISL:KATA:1,2016-11-03T08:30:00Z,30.2583,-88.2131,4.194,4.67,1111122 
DISL,ioos:station:DISL:KATA:1,2016-11-03T09:00:00Z,30.2583,-88.2131,4.163,4.63,1111122 
DISL,ioos:station:DISL:KATA:1,2016-11-03T09:30:00Z,30.2583,-88.2131,4.127,4.6,1111122 
DISL,ioos:station:DISL:KATA:1,2016-11-03T10:00:00Z,30.2583,-88.2131,4.078,5.33,1111122 
DISL,ioos:station:DISL:KATA:1,2016-11-03T10:30:00Z,30.2583,-88.2131,4.036,4.72,1111122 
DISL,ioos:station:DISL:KATA:1,2016-11-03T11:00:00Z,30.2583,-88.2131,3.988,4.67,1111122 
DISL,ioos:station:DISL:KATA:1,2016-11-03T11:30:00Z,30.2583,-88.2131,3.944,4.82,1111122 
DISL,ioos:station:DISL:KATA:1,2016-11-03T12:00:00Z,30.2583,-88.2131,3.903,4.98,1111122 
DISL,ioos:station:DISL:KATA:1,2016-11-03T12:30:00Z,30.2583,-88.2131,3.877,4.88,1111122 
DISL,ioos:station:DISL:KATA:1,2016-11-03T13:00:00Z,30.2583,-88.2131,3.863,5.25,1111122 
DISL,ioos:station:DISL:KATA:1,2016-11-03T13:30:00Z,30.2583,-88.2131,3.848,5.04,1111122 
DISL,ioos:station:DISL:KATA:1,2016-11-03T14:00:00Z,30.2583,-88.2131,3.838,5.29,1111122 
DISL,ioos:station:DISL:KATA:1,2016-11-03T14:30:00Z,30.2583,-88.2131,3.838,5.4,1111122 
DISL,ioos:station:DISL:KATA:1,2016-11-03T15:00:00Z,30.2583,-88.2131,3.843,5.44,1111122 
DISL,ioos:station:DISL:KATA:1,2016-11-03T15:30:00Z,30.2583,-88.2131,3.858,5.55,1111122 
DISL,ioos:station:DISL:KATA:1,2016-11-03T16:00:00Z,30.2583,-88.2131,3.864,3.33,1111122 
DISL,ioos:station:DISL:KATA:1,2016-11-03T16:30:00Z,30.2583,-88.2131,3.876,4.29,1111122 
DISL,ioos:station:DISL:KATA:1,2016-11-03T17:00:00Z,30.2583,-88.2131,3.885,3.48,1111122 
DISL,ioos:station:DISL:KATA:1,2016-11-03T17:30:00Z,30.2583,-88.2131,3.898,3.38,1111122 
DISL,ioos:station:DISL:KATA:1,2016-11-03T18:00:00Z,30.2583,-88.2131,3.916,3.42,1111122 
DISL,ioos:station:DISL:KATA:1,2016-11-03T18:30:00Z,30.2583,-88.2131,3.946,3.63,1111122 
DISL,ioos:station:DISL:KATA:1,2016-11-03T19:00:00Z,30.2583,-88.2131,3.966,3.43,1111122 
DISL,ioos:station:DISL:KATA:1,2016-11-03T19:30:00Z,30.2583,-88.2131,3.979,3.36,1111122 
DISL,ioos:station:DISL:KATA:1,2016-11-03T20:00:00Z,30.2583,-88.2131,3.999,3.15,1111122 
DISL,ioos:station:DISL:KATA:1,2016-11-03T20:30:00Z,30.2583,-88.2131,4.022,2.98,1111122 
DISL,ioos:station:DISL:KATA:1,2016-11-03T21:00:00Z,30.2583,-88.2131,4.042,3.13,1111122 
DISL,ioos:station:DISL:KATA:1,2016-11-03T21:30:00Z,30.2583,-88.2131,4.069,3.11,1111122 
DISL,ioos:station:DISL:KATA:1,2016-11-03T22:00:00Z,30.2583,-88.2131,4.09,3.1,1111122 
DISL,ioos:station:DISL:KATA:1,2016-11-03T22:30:00Z,30.2583,-88.2131,4.115,3.29,1111122 
DISL,ioos:station:DISL:KATA:1,2016-11-03T23:00:00Z,30.2583,-88.2131,4.143,3.41,1111122 
DISL,ioos:station:DISL:KATA:1,2016-11-03T23:30:00Z,30.2583,-88.2131,4.158,3.45,1111122 
DISL,ioos:station:DISL:KATA:1,2016-11-04T00:00:00Z,30.2583,-88.2131,4.179,3.44,1111122 
DISL,ioos:station:DISL:KATA:1,2016-11-04T00:30:00Z,30.2583,-88.2131,4.198,3.74,1111122 
DISL,ioos:station:DISL:KATA:1,2016-11-04T01:00:00Z,30.2583,-88.2131,4.218,3.87,1111122 
DISL,ioos:station:DISL:KATA:1,2016-11-04T01:30:00Z,30.2583,-88.2131,4.24,4.09,1111122 
DISL,ioos:station:DISL:KATA:1,2016-11-04T02:00:00Z,30.2583,-88.2131,4.268,4.31,1111122 
DISL,ioos:station:DISL:KATA:1,2016-11-04T02:30:00Z,30.2583,-88.2131,4.293,4.48,1111122 
DISL,ioos:station:DISL:KATA:1,2016-11-04T03:00:00Z,30.2583,-88.2131,4.313,4.52,1111122 
DISL,ioos:station:DISL:KATA:1,2016-11-04T03:30:00Z,30.2583,-88.2131,4.329,4.68,1111122 
DISL,ioos:station:DISL:KATA:1,2016-11-04T04:00:00Z,30.2583,-88.2131,4.34,4.7,1111122 
DISL,ioos:station:DISL:KATA:1,2016-11-04T04:30:00Z,30.2583,-88.2131,4.35,4.85,1111122 
DISL,ioos:station:DISL:KATA:1,2016-11-04T05:00:00Z,30.2583,-88.2131,4.347,5.19,1111122 
DISL,ioos:station:DISL:KATA:1,2016-11-04T05:30:00Z,30.2583,-88.2131,4.336,5.07,1111122 
DISL,ioos:station:DISL:KATA:1,2016-11-04T06:00:00Z,30.2583,-88.2131,4.329,4.72,1111122 
DISL,ioos:station:DISL:KATA:1,2016-11-04T06:30:00Z,30.2583,-88.2131,4.31,4.7,1111122 
DISL,ioos:station:DISL:KATA:1,2016-11-04T07:00:00Z,30.2583,-88.2131,4.292,4.46,1111122 
DISL,ioos:station:DISL:KATA:1,2016-11-04T07:30:00Z,30.2583,-88.2131,4.267,5.08,1111122 
DISL,ioos:station:DISL:KATA:1,2016-11-04T08:00:00Z,30.2583,-88.2131,4.24,4.69,1111122 
DISL,ioos:station:DISL:KATA:1,2016-11-04T08:30:00Z,30.2583,-88.2131,4.211,4.77,1111122 
DISL,ioos:station:DISL:KATA:1,2016-11-04T09:00:00Z,30.2583,-88.2131,4.18,5.1,1111122 
DISL,ioos:station:DISL:KATA:1,2016-11-04T09:30:00Z,30.2583,-88.2131,4.136,5.06,1111122 
DISL,ioos:station:DISL:KATA:1,2016-11-04T10:00:00Z,30.2583,-88.2131,4.101,5.05,1111122 
DISL,ioos:station:DISL:KATA:1,2016-11-04T10:30:00Z,30.2583,-88.2131,4.062,5.32,1111122 
DISL,ioos:station:DISL:KATA:1,2016-11-04T11:00:00Z,30.2583,-88.2131,4.026,5.22,1111122 
DISL,ioos:station:DISL:KATA:1,2016-11-04T11:30:00Z,30.2583,-88.2131,3.983,5.73,1111122 
DISL,ioos:station:DISL:KATA:1,2016-11-04T12:00:00Z,30.2583,-88.2131,3.941,5.57,1111122 
DISL,ioos:station:DISL:KATA:1,2016-11-04T12:30:00Z,30.2583,-88.2131,3.91,5.8,1111122 
DISL,ioos:station:DISL:KATA:1,2016-11-04T13:00:00Z,30.2583,-88.2131,3.88,5.71,1111122 
DISL,ioos:station:DISL:KATA:1,2016-11-04T13:30:00Z,30.2583,-88.2131,3.857,5.87,1111122 
DISL,ioos:station:DISL:KATA:1,2016-11-04T14:00:00Z,30.2583,-88.2131,3.83,5.99,1111122 
DISL,ioos:station:DISL:KATA:1,2016-11-04T14:30:00Z,30.2583,-88.2131,3.798,6.23,1111122 
DISL,ioos:station:DISL:KATA:1,2016-11-04T15:00:00Z,30.2583,-88.2131,3.785,6.98,1111122 
DISL,ioos:station:DISL:KATA:1,2016-11-04T15:30:00Z,30.2583,-88.2131,3.774,7.06,1111122 
DISL,ioos:station:DISL:KATA:1,2016-11-04T16:00:00Z,30.2583,-88.2131,3.777,7.25,1111122 
DISL,ioos:station:DISL:KATA:1,2016-11-04T16:30:00Z,30.2583,-88.2131,3.787,7.55,1111122 
DISL,ioos:station:DISL:KATA:1,2016-11-04T17:00:00Z,30.2583,-88.2131,3.801,7.73,1111122 
DISL,ioos:station:DISL:KATA:1,2016-11-04T17:30:00Z,30.2583,-88.2131,3.814,7.5,1111122 
DISL,ioos:station:DISL:KATA:1,2016-11-04T18:00:00Z,30.2583,-88.2131,3.838,7.47,1111122 
DISL,ioos:station:DISL:KATA:1,2016-11-04T18:30:00Z,30.2583,-88.2131,3.873,7.0,1111122 
DISL,ioos:station:DISL:KATA:1,2016-11-04T19:00:00Z,30.2583,-88.2131,3.905,6.57,1111122 
DISL,ioos:station:DISL:KATA:1,2016-11-04T19:30:00Z,30.2583,-88.2131,3.942,6.77,1111122 
DISL,ioos:station:DISL:KATA:1,2016-11-04T20:00:00Z,30.2583,-88.2131,3.97,6.65,1111122 
DISL,ioos:station:DISL:KATA:1,2016-11-04T20:30:00Z,30.2583,-88.2131,3.988,6.11,1111122 
DISL,ioos:station:DISL:KATA:1,2016-11-04T21:00:00Z,30.2583,-88.2131,4.009,6.82,1111122 
DISL,ioos:station:DISL:KATA:1,2016-11-04T21:30:00Z,30.2583,-88.2131,4.032,7.05,1111122 
DISL,ioos:station:DISL:KATA:1,2016-11-04T22:00:00Z,30.2583,-88.2131,4.041,6.55,1111122 
DISL,ioos:station:DISL:KATA:1,2016-11-04T22:30:00Z,30.2583,-88.2131,4.048,7.5,1111122 
DISL,ioos:station:DISL:KATA:1,2016-11-04T23:00:00Z,30.2583,-88.2131,4.062,7.01,1111122 
DISL,ioos:station:DISL:KATA:1,2016-11-04T23:30:00Z,30.2583,-88.2131,4.073,7.5,1111122 
DISL,ioos:station:DISL:KATA:1,2016-11-05T00:00:00Z,30.2583,-88.2131,4.1,7.74,1111122 
DISL,ioos:station:DISL:KATA:1,2016-11-05T00:30:00Z,30.2583,-88.2131,4.118,7.57,1111122 
DISL,ioos:station:DISL:KATA:1,2016-11-05T01:00:00Z,30.2583,-88.2131,4.126,7.68,1111122 
DISL,ioos:station:DISL:KATA:1,2016-11-05T01:30:00Z,30.2583,-88.2131,4.14,7.61,1111122 
DISL,ioos:station:DISL:KATA:1,2016-11-05T02:00:00Z,30.2583,-88.2131,4.158,7.52,1111122 
DISL,ioos:station:DISL:KATA:1,2016-11-05T02:30:00Z,30.2583,-88.2131,4.183,7.88,1111122 
DISL,ioos:station:DISL:KATA:1,2016-11-05T03:00:00Z,30.2583,-88.2131,4.202,7.95,1111122 
DISL,ioos:station:DISL:KATA:1,2016-11-05T03:30:00Z,30.2583,-88.2131,4.202,8.04,1111122 
DISL,ioos:station:DISL:KATA:1,2016-11-05T04:00:00Z,30.2583,-88.2131,4.208,7.92,1111122 
DISL,ioos:station:DISL:KATA:1,2016-11-05T04:30:00Z,30.2583,-88.2131,4.215,7.9,1111122 
DISL,ioos:station:DISL:KATA:1,2016-11-05T05:00:00Z,30.2583,-88.2131,4.217,7.77,1111122 
DISL,ioos:station:DISL:KATA:1,2016-11-05T05:30:00Z,30.2583,-88.2131,4.211,7.55,1111122 
DISL,ioos:station:DISL:KATA:1,2016-11-05T06:00:00Z,30.2583,-88.2131,4.201,7.51,1111122 
DISL,ioos:station:DISL:KATA:1,2016-11-05T06:30:00Z,30.2583,-88.2131,4.175,7.53,1111122 
DISL,ioos:station:DISL:KATA:1,2016-11-05T07:00:00Z,30.2583,-88.2131,4.161,7.45,1111122 
DISL,ioos:station:DISL:KATA:1,2016-11-05T07:30:00Z,30.2583,-88.2131,4.157,7.46,1111122 
DISL,ioos:station:DISL:KATA:1,2016-11-05T08:00:00Z,30.2583,-88.2131,4.153,7.55,1111122 
DISL,ioos:station:DISL:KATA:1,2016-11-05T08:30:00Z,30.2583,-88.2131,4.149,7.7,1111122 
DISL,ioos:station:DISL:KATA:1,2016-11-05T09:00:00Z,30.2583,-88.2131,4.148,7.64,1111122 
DISL,ioos:station:DISL:KATA:1,2016-11-05T09:30:00Z,30.2583,-88.2131,4.157,7.41,1111122 
DISL,ioos:station:DISL:KATA:1,2016-11-05T10:00:00Z,30.2583,-88.2131,4.151,7.41,1111122 
DISL,ioos:station:DISL:KATA:1,2016-11-05T10:30:00Z,30.2583,-88.2131,4.121,7.44,1111122 
DISL,ioos:station:DISL:KATA:1,2016-11-05T11:00:00Z,30.2583,-88.2131,4.078,7.31,1111122 
DISL,ioos:station:DISL:KATA:1,2016-11-05T11:30:00Z,30.2583,-88.2131,4.029,7.31,1111122 
DISL,ioos:station:DISL:KATA:1,2016-11-05T12:00:00Z,30.2583,-88.2131,3.968,7.32,1111122 
DISL,ioos:station:DISL:KATA:1,2016-11-05T12:30:00Z,30.2583,-88.2131,3.926,7.56,1111122 
DISL,ioos:station:DISL:KATA:1,2016-11-05T13:00:00Z,30.2583,-88.2131,3.891,7.38,1111122 
DISL,ioos:station:DISL:KATA:1,2016-11-05T13:30:00Z,30.2583,-88.2131,3.867,7.2,1111122 
DISL,ioos:station:DISL:KATA:1,2016-11-05T14:00:00Z,30.2583,-88.2131,3.857,7.18,1111122 
DISL,ioos:station:DISL:KATA:1,2016-11-05T14:30:00Z,30.2583,-88.2131,3.857,7.12,1111122 
DISL,ioos:station:DISL:KATA:1,2016-11-05T15:00:00Z,30.2583,-88.2131,3.879,7.25,1111122 
DISL,ioos:station:DISL:KATA:1,2016-11-05T15:30:00Z,30.2583,-88.2131,3.885,7.37,1111122 
DISL,ioos:station:DISL:KATA:1,2016-11-05T16:00:00Z,30.2583,-88.2131,3.88,7.34,1111122 
DISL,ioos:station:DISL:KATA:1,2016-11-05T16:30:00Z,30.2583,-88.2131,3.867,7.4,1111122 
DISL,ioos:station:DISL:KATA:1,2016-11-05T17:00:00Z,30.2583,-88.2131,3.853,7.46,1111122 
DISL,ioos:station:DISL:KATA:1,2016-11-05T17:30:00Z,30.2583,-88.2131,3.838,7.42,1111122 
DISL,ioos:station:DISL:KATA:1,2016-11-05T18:00:00Z,30.2583,-88.2131,3.84,7.32,1111122 
DISL,ioos:station:DISL:KATA:1,2016-11-05T18:30:00Z,30.2583,-88.2131,3.848,7.37,1111122 
DISL,ioos:station:DISL:KATA:1,2016-11-05T19:00:00Z,30.2583,-88.2131,3.866,7.22,1111122 
DISL,ioos:station:DISL:KATA:1,2016-11-05T19:30:00Z,30.2583,-88.2131,3.88,7.26,1111122 
DISL,ioos:station:DISL:KATA:1,2016-11-05T20:00:00Z,30.2583,-88.2131,3.903,7.29,1111122 
DISL,ioos:station:DISL:KATA:1,2016-11-05T20:30:00Z,30.2583,-88.2131,3.915,7.26,1111122 
DISL,ioos:station:DISL:KATA:1,2016-11-05T21:00:00Z,30.2583,-88.2131,3.942,7.37,1111122 
DISL,ioos:station:DISL:KATA:1,2016-11-05T21:30:00Z,30.2583,-88.2131,3.962,7.36,1111122 
DISL,ioos:station:DISL:KATA:1,2016-11-05T22:00:00Z,30.2583,-88.2131,3.986,7.43,1111122 
DISL,ioos:station:DISL:KATA:1,2016-11-05T22:30:00Z,30.2583,-88.2131,4.003,7.42,1111122 
DISL,ioos:station:DISL:KATA:1,2016-11-05T23:00:00Z,30.2583,-88.2131,4.028,7.47,1111122 
DISL,ioos:station:DISL:KATA:1,2016-11-05T23:30:00Z,30.2583,-88.2131,4.049,7.77,1111122 
DISL,ioos:station:DISL:KATA:1,2016-11-06T00:00:00Z,30.2583,-88.2131,4.067,7.71,1111122 
DISL,ioos:station:DISL:KATA:1,2016-11-06T00:30:00Z,30.2583,-88.2131,4.091,7.84,1111122 
DISL,ioos:station:DISL:KATA:1,2016-11-06T01:00:00Z,30.2583,-88.2131,4.109,7.65,1111122 
DISL,ioos:station:DISL:KATA:1,2016-11-06T01:30:00Z,30.2583,-88.2131,4.13,7.6,1111122 
DISL,ioos:station:DISL:KATA:1,2016-11-06T02:00:00Z,30.2583,-88.2131,4.148,7.67,1111122 
DISL,ioos:station:DISL:KATA:1,2016-11-06T02:30:00Z,30.2583,-88.2131,4.172,7.55,1111122 
DISL,ioos:station:DISL:KATA:1,2016-11-06T03:00:00Z,30.2583,-88.2131,4.192,7.41,1111122 
DISL,ioos:station:DISL:KATA:1,2016-11-06T03:30:00Z,30.2583,-88.2131,4.227,7.24,1111122 
DISL,ioos:station:DISL:KATA:1,2016-11-06T04:00:00Z,30.2583,-88.2131,4.246,7.26,1111122 
DISL,ioos:station:DISL:KATA:1,2016-11-06T04:30:00Z,30.2583,-88.2131,4.254,7.29,1111122 
DISL,ioos:station:DISL:KATA:1,2016-11-06T05:00:00Z,30.2583,-88.2131,4.251,7.34,1111122 
DISL,ioos:station:DISL:KATA:1,2016-11-06T05:30:00Z,30.2583,-88.2131,4.26,7.3,1111122 
DISL,ioos:station:DISL:KATA:1,2016-11-06T06:00:00Z,30.2583,-88.2131,4.26,7.24,1111122 
DISL,ioos:station:DISL:KATA:1,2016-11-06T06:30:00Z,30.2583,-88.2131,4.26,7.14,1111122 
DISL,ioos:station:DISL:KATA:1,2016-11-06T07:00:00Z,30.2583,-88.2131,4.256,7.09,1111122 
DISL,ioos:station:DISL:KATA:1,2016-11-06T07:30:00Z,30.2583,-88.2131,4.237,6.99,1111122 
DISL,ioos:station:DISL:KATA:1,2016-11-06T08:00:00Z,30.2583,-88.2131,4.225,6.82,1111122 
DISL,ioos:station:DISL:KATA:1,2016-11-06T08:30:00Z,30.2583,-88.2131,4.196,7.05,1111122 
DISL,ioos:station:DISL:KATA:1,2016-11-06T09:00:00Z,30.2583,-88.2131,4.163,7.21,1111122 
DISL,ioos:station:DISL:KATA:1,2016-11-06T09:30:00Z,30.2583,-88.2131,4.136,7.23,1111122 
DISL,ioos:station:DISL:KATA:1,2016-11-06T10:00:00Z,30.2583,-88.2131,4.103,7.13,1111122 
DISL,ioos:station:DISL:KATA:1,2016-11-06T10:30:00Z,30.2583,-88.2131,4.071,7.14,1111122 
DISL,ioos:station:DISL:KATA:1,2016-11-06T11:00:00Z,30.2583,-88.2131,4.034,7.3,1111122 
DISL,ioos:station:DISL:KATA:1,2016-11-06T11:30:00Z,30.2583,-88.2131,4.0,7.23,1111122 
DISL,ioos:station:DISL:KATA:1,2016-11-06T12:00:00Z,30.2583,-88.2131,3.965,7.29,1111122 
DISL,ioos:station:DISL:KATA:1,2016-11-06T12:30:00Z,30.2583,-88.2131,3.934,7.2,1111122 
DISL,ioos:station:DISL:KATA:1,2016-11-06T13:00:00Z,30.2583,-88.2131,3.895,7.2,1111122 
DISL,ioos:station:DISL:KATA:1,2016-11-06T13:30:00Z,30.2583,-88.2131,3.858,7.13,1111122 
DISL,ioos:station:DISL:KATA:1,2016-11-06T14:00:00Z,30.2583,-88.2131,3.826,6.93,1111122 
DISL,ioos:station:DISL:KATA:1,2016-11-06T14:30:00Z,30.2583,-88.2131,3.804,6.92,1111122 
DISL,ioos:station:DISL:KATA:1,2016-11-06T15:00:00Z,30.2583,-88.2131,3.785,6.96,1111122 
DISL,ioos:station:DISL:KATA:1,2016-11-06T15:30:00Z,30.2583,-88.2131,3.787,6.95,1111122 